I4GOS-3 Weather Reports


time (UTC)temp
F
wind
direction
speed
knots
gust
knots
rain 1hr
in
rain 24hr
in
rain mn
in
humidity
%
barometer
mb
20260507083020 68 34 7.0 0.0 0.00 0.00 0.00 63 1013.5
20260507082520 69 317 3.5 0.0 0.00 0.00 0.00 64 1013.4
20260507082020 69 9 0.0 0.0 0.00 0.00 0.00 65 1013.3
20260507081519 69 331 0.0 0.0 0.00 0.00 0.00 64 1013.2
20260507081018 70 319 7.8 0.0 0.00 0.00 0.00 59 1013.2
20260507080518 70 266 0.0 0.0 0.00 0.00 0.00 55 1013.1
20260507080017 69 242 0.0 0.0 0.00 0.00 0.00 55 1013.1
20260507075517 69 230 0.0 0.0 0.00 0.00 0.00 56 1013.1
20260507075017 69 243 0.0 0.0 0.00 0.00 0.00 58 1013.1
20260507074517 69 235 0.0 0.0 0.00 0.00 0.00 59 1013.1
20260507074016 69 228 0.0 0.0 0.00 0.00 0.00 60 1013.1
20260507073516 68 229 0.0 0.0 0.00 0.00 0.00 61 1013.1
20260507073016 67 179 0.0 0.0 0.00 0.00 0.00 61 1013.2
20260507072516 67 182 0.0 0.0 0.00 0.00 0.00 62 1013.1
20260507072016 67 180 0.0 0.0 0.00 0.00 0.00 63 1013.1
20260507071515 67 75 0.0 0.0 0.00 0.00 0.00 64 1013.2
20260507071015 67 60 0.0 0.0 0.00 0.00 0.00 66 1013.2
20260507070515 67 60 0.0 0.0 0.00 0.00 0.00 66 1013.2
20260507070015 67 60 0.0 0.0 0.00 0.00 0.00 67 1013.2
20260507065514 66 54 0.0 0.0 0.00 0.00 0.00 69 1013.1
20260507065014 67 54 0.0 0.0 0.00 0.00 0.00 70 1013.1
20260507064514 66 54 0.0 0.0 0.00 0.00 0.00 71 1013.1
20260507064014 65 54 0.0 0.0 0.00 0.00 0.00 72 1013.1
20260507063513 65 54 0.0 0.0 0.00 0.00 0.00 73 1013.2
20260507063013 65 54 0.0 0.0 0.00 0.00 0.00 74 1013.2
20260507062513 65 45 0.0 0.0 0.00 0.00 0.00 75 1013.1
20260507062013 64 43 0.0 0.0 0.00 0.00 0.00 75 1013.1
20260507061513 64 42 0.0 0.0 0.00 0.00 0.00 75 1013.1
20260507061012 63 40 0.0 0.0 0.00 0.00 0.00 75 1013.1
20260507060512 63 40 0.0 0.0 0.00 0.00 0.00 75 1013.1
20260507060012 63 354 0.0 0.0 0.00 0.00 0.00 75 1013.1
20260507055512 62 354 0.0 0.0 0.00 0.00 0.00 74 1013.0
20260507055011 62 338 0.0 0.0 0.00 0.00 0.00 75 1013.0
20260507054511 61 156 0.0 0.0 0.00 0.00 0.00 75 1012.8
20260507054011 61 152 0.0 0.0 0.00 0.00 0.00 75 1012.8
20260507053511 61 131 0.0 0.0 0.00 0.00 0.00 75 1012.7
20260507053011 61 129 0.0 0.0 0.00 0.00 0.00 75 1012.7
20260507052510 61 129 0.0 0.0 0.00 0.00 0.00 75 1012.7
20260507052010 61 129 0.0 0.0 0.00 0.00 0.00 75 1012.6
20260507051510 61 129 0.0 0.0 0.00 0.00 0.00 75 1012.6
20260507051010 61 129 0.0 0.0 0.00 0.00 0.00 75 1012.7
20260507050509 61 129 0.0 0.0 0.00 0.00 0.00 75 1012.6
20260507050009 61 129 0.0 0.0 0.00 0.00 0.00 75 1012.6
20260507045509 62 129 0.0 0.0 0.00 0.00 0.00 75 1012.5
20260507045009 62 129 0.0 0.0 0.00 0.00 0.00 75 1012.4
20260507044508 62 129 0.0 0.0 0.00 0.00 0.00 75 1012.2
20260507044008 62 129 0.0 0.0 0.00 0.00 0.00 75 1012.2
20260507043508 62 129 0.0 0.0 0.00 0.00 0.00 75 1012.1
20260507043008 61 129 0.0 0.0 0.00 0.00 0.00 75 1012.1
20260507042507 61 129 0.0 0.0 0.00 0.00 0.00 75 1012.1
20260507042007 61 129 0.0 0.0 0.00 0.00 0.00 75 1012.2
20260507041507 61 129 0.0 0.0 0.00 0.00 0.00 75 1012.1
20260507041007 61 129 0.0 0.0 0.00 0.00 0.00 75 1012.1
20260507040507 61 124 0.0 0.0 0.00 0.00 0.00 75 1012.0
20260507040006 61 105 0.0 0.0 0.00 0.00 0.00 75 1011.9
20260507035506 61 102 0.0 0.0 0.00 0.00 0.00 75 1011.9
20260507035006 61 101 0.0 0.0 0.00 0.00 0.00 75 1011.8
20260507034506 61 116 0.0 0.0 0.00 0.00 0.00 75 1011.9
20260507034005 61 115 0.0 0.0 0.00 0.00 0.00 75 1011.9
20260507033505 61 115 0.0 0.0 0.00 0.00 0.00 76 1011.9
20260507033005 61 129 0.0 0.0 0.00 0.00 0.00 76 1011.8
20260507032505 61 129 0.0 0.0 0.00 0.00 0.00 76 1011.8
20260507032004 61 129 0.0 0.0 0.00 0.00 0.00 76 1011.8
20260507031736 61 129 0.0 0.0 0.00 0.00 0.00 76 1011.8
20260507031504 61 129 0.0 0.0 0.00 0.00 0.00 76 1011.8
20260507031004 61 130 0.0 0.0 0.00 0.00 0.00 76 1011.9
20260507030504 61 330 0.0 0.0 0.00 0.00 0.00 76 1011.8
20260507030004 62 330 0.0 0.0 0.00 0.00 0.00 75 1011.8
20260507025503 62 330 0.0 0.0 0.00 0.00 0.00 75 1011.8
20260507025003 62 330 0.0 0.0 0.00 0.00 0.00 75 1011.8
20260507024734 61 330 0.0 0.0 0.00 0.00 0.00 75 1011.8
20260507024503 61 330 0.0 0.0 0.00 0.00 0.00 75 1011.8
20260507024003 62 330 0.0 0.0 0.00 0.00 0.00 75 1011.8
20260507023502 62 330 0.0 0.0 0.00 0.00 0.00 75 1011.6
20260507023002 62 330 0.0 0.0 0.00 0.00 0.00 75 1011.6
20260507022502 62 330 0.0 0.0 0.00 0.00 0.00 75 1011.7
20260507022002 62 330 0.0 0.0 0.00 0.00 0.00 75 1011.8
20260507021501 62 330 0.0 0.0 0.00 0.00 0.00 75 1011.7
20260507021218 62 330 0.0 0.0 0.00 0.00 0.00 75 1011.8
20260507021001 62 330 0.0 0.0 0.00 0.00 0.00 75 1011.8
20260507020501 62 330 0.0 0.0 0.00 0.00 0.00 75 1011.8
20260507020001 62 330 0.0 0.0 0.00 0.00 0.00 75 1011.8
20260507015501 62 330 0.0 0.0 0.00 0.00 0.00 75 1011.7
20260507015000 62 330 0.0 0.0 0.00 0.00 0.00 75 1011.7
20260507014501 62 330 0.0 0.0 0.00 0.00 0.00 75 1011.7
20260507014000 63 330 0.0 0.0 0.00 0.00 0.00 75 1011.7
20260507013500 63 330 0.0 0.0 0.00 0.00 0.00 75 1011.7
20260507012959 63 330 0.0 0.0 0.00 0.00 0.00 75 1011.7
20260507012459 63 329 0.0 0.0 0.00 0.00 0.00 75 1011.7
20260507011959 63 329 0.0 0.0 0.00 0.00 0.00 75 1011.7
20260507011459 63 329 0.0 0.0 0.00 0.00 0.00 75 1011.7
20260507010959 63 329 0.0 0.0 0.00 0.00 0.00 74 1011.7
20260507010458 63 329 0.0 0.0 0.00 0.00 0.00 74 1011.7
20260507005958 64 328 0.0 0.0 0.00 0.00 0.00 74 1011.8
20260507005458 64 325 0.0 0.0 0.00 0.00 0.00 74 1011.7
20260507004958 64 33 0.0 0.0 0.00 0.00 0.00 74 1011.8
20260507004457 64 33 0.0 0.0 0.00 0.00 0.00 73 1011.8
20260507003957 64 33 0.0 0.0 0.00 0.00 0.00 73 1011.8
20260507003457 64 33 0.0 0.0 0.00 0.00 0.00 73 1011.7
20260507002957 64 280 0.0 0.0 0.00 0.00 0.00 72 1011.8
20260507002456 64 281 0.0 0.0 0.00 0.00 0.00 71 1011.8
20260507001956 64 280 0.0 0.0 0.00 0.00 0.00 71 1011.8
20260507001456 65 280 0.0 0.0 0.00 0.00 0.00 71 1011.8
20260507000956 65 280 0.0 0.0 0.00 0.00 0.00 70 1011.9
20260507000455 65 281 0.0 0.0 0.00 0.00 0.00 70 1011.9
20260506235955 66 281 0.0 0.0 0.00 0.00 0.00 69 1011.9
20260506235455 66 280 0.0 0.0 0.00 0.00 0.00 68 1011.9
20260506234955 66 237 0.0 0.0 0.00 0.00 0.00 68 1011.8
20260506234455 66 237 0.0 0.0 0.00 0.00 0.00 67 1011.7
20260506233954 66 144 0.0 0.0 0.00 0.00 0.00 67 1011.7
20260506233454 66 143 0.0 0.0 0.00 0.00 0.00 67 1011.7
20260506232954 66 187 0.0 0.0 0.00 0.00 0.00 67 1011.7
20260506232454 66 223 2.6 0.0 0.00 0.00 0.00 66 1011.7
20260506231953 67 245 0.0 0.0 0.00 0.00 0.00 65 1011.7
20260506230953 67 166 0.0 0.0 0.00 0.00 0.00 64 1011.5
20260506230453 67 184 1.7 0.0 0.00 0.00 0.00 64 1011.5
20260506225952 67 139 5.2 0.0 0.00 0.00 0.00 64 1011.6
20260506225452 67 187 6.1 0.0 0.00 0.00 0.00 65 1011.5
20260506224952 67 133 1.7 0.0 0.00 0.00 0.00 65 1011.5
20260506224452 67 157 1.7 0.0 0.00 0.00 0.00 66 1011.5
20260506223952 66 150 2.6 0.0 0.00 0.00 0.00 66 1011.5
20260506223451 66 155 1.7 0.0 0.00 0.00 0.00 67 1011.4
20260506222951 66 140 4.3 0.0 0.00 0.00 0.00 68 1011.5
20260506222451 66 152 4.3 0.0 0.00 0.00 0.00 69 1011.6
20260506221951 66 141 1.7 0.0 0.00 0.00 0.00 70 1011.6
20260506221451 65 145 2.6 0.0 0.00 0.00 0.00 70 1011.7
20260506220950 65 150 0.0 0.0 0.00 0.00 0.00 71 1011.7
20260506220450 65 139 0.0 0.0 0.00 0.00 0.00 71 1011.7
20260506215950 65 139 0.0 0.0 0.00 0.00 0.00 71 1011.7
20260506215450 65 139 0.0 0.0 0.00 0.00 0.00 71 1011.8
20260506214949 65 139 0.0 0.0 0.00 0.00 0.00 71 1011.7
20260506214449 65 143 0.0 0.0 0.00 0.00 0.00 71 1011.8
20260506213949 65 143 0.0 0.0 0.00 0.00 0.00 71 1011.9
20260506213449 65 129 0.0 0.0 0.00 0.00 0.00 72 1011.8
20260506212948 65 109 0.0 0.0 0.00 0.00 0.00 72 1011.8
20260506212448 65 104 0.0 0.0 0.00 0.00 0.00 73 1011.7
20260506211948 65 92 0.0 0.0 0.00 0.00 0.00 73 1011.7
20260506211448 65 46 0.0 0.0 0.00 0.00 0.00 73 1011.8
20260506210948 65 46 0.0 0.0 0.00 0.00 0.00 73 1011.8
20260506210447 65 45 0.0 0.0 0.00 0.00 0.00 73 1011.8
20260506205947 65 46 0.0 0.0 0.00 0.00 0.00 73 1011.8
20260506205447 65 46 0.0 0.0 0.00 0.00 0.00 73 1011.8
20260506204947 65 45 0.0 0.0 0.00 0.00 0.00 73 1011.8
20260506204446 65 45 0.0 0.0 0.00 0.00 0.00 73 1011.8
20260506203946 65 45 0.0 0.0 0.00 0.00 0.00 73 1011.7
20260506202946 65 45 0.0 0.0 0.00 0.00 0.00 73 1011.7
20260506202445 65 33 0.0 0.0 0.00 0.00 0.00 73 1011.5
20260506201945 65 354 0.0 0.0 0.00 0.00 0.00 73 1011.5
20260506201445 65 346 0.0 0.0 0.00 0.00 0.00 73 1011.5
20260506200945 65 346 0.0 0.0 0.00 0.00 0.00 73 1011.5
20260506200445 65 346 0.0 0.0 0.00 0.00 0.00 73 1011.6
20260506195944 65 346 0.0 0.0 0.00 0.00 0.00 73 1011.6
20260506195444 65 346 0.0 0.0 0.00 0.00 0.00 73 1011.5
20260506194944 65 343 0.0 0.0 0.00 0.00 0.00 72 1011.5
20260506194444 66 341 0.0 0.0 0.00 0.00 0.00 72 1011.4
20260506193943 66 343 0.0 0.0 0.00 0.00 0.00 72 1011.4
20260506193443 66 343 0.0 0.0 0.00 0.00 0.00 72 1011.3
20260506192943 66 343 0.0 0.0 0.00 0.00 0.00 72 1011.3
20260506192443 66 343 0.0 0.0 0.00 0.00 0.00 72 1011.3
20260506191942 66 343 0.0 0.0 0.00 0.00 0.00 72 1011.1
20260506191442 66 339 0.0 0.0 0.00 0.00 0.00 71 1011.1
20260506190942 66 337 0.0 0.0 0.00 0.00 0.00 71 1011.0
20260506190442 66 339 0.0 0.0 0.00 0.00 0.00 71 1010.9
20260506185941 66 308 0.0 0.0 0.00 0.00 0.00 70 1010.8
20260506185441 66 291 0.0 0.0 0.00 0.00 0.00 70 1010.8
20260506184941 66 303 0.0 0.0 0.00 0.00 0.00 70 1010.7
20260506184441 66 282 0.0 0.0 0.00 0.00 0.00 70 1010.7
20260506183941 66 285 0.0 0.0 0.00 0.00 0.00 69 1010.6
20260506183440 66 284 4.3 0.0 0.00 0.00 0.00 69 1010.5
20260506182940 67 266 2.6 0.0 0.00 0.00 0.00 69 1010.4
20260506182440 68 252 0.0 0.0 0.00 0.00 0.00 67 1010.3
20260506181940 68 251 0.0 0.0 0.00 0.00 0.00 66 1010.2
20260506181439 69 254 0.0 0.0 0.00 0.00 0.00 65 1010.1
20260506180939 70 237 0.0 0.0 0.00 0.00 0.00 63 1010.1
20260506180439 70 148 0.0 0.0 0.00 0.00 0.00 62 1010.0
20260506175939 70 158 2.6 0.0 0.00 0.00 0.00 62 1009.8
20260506174938 70 135 2.6 0.0 0.00 0.00 0.00 61 1009.8
20260506174438 70 144 0.9 0.0 0.00 0.00 0.00 61 1009.8
20260506173938 70 148 3.5 0.0 0.00 0.00 0.00 61 1009.7
20260506173437 71 136 7.0 0.0 0.00 0.00 0.00 60 1009.7
20260506172937 71 144 1.7 0.0 0.00 0.00 0.00 60 1009.6
20260506172437 71 131 1.7 0.0 0.00 0.00 0.00 60 1009.6
20260506171937 71 149 3.5 0.0 0.00 0.00 0.00 59 1009.6
20260506171436 71 138 7.8 0.0 0.00 0.00 0.00 59 1009.5
20260506170936 71 135 8.7 0.0 0.00 0.00 0.00 59 1009.4
20260506170436 71 157 2.6 0.0 0.00 0.00 0.00 59 1009.4
20260506165936 71 148 2.6 0.0 0.00 0.00 0.00 58 1009.4
20260506165436 71 144 7.8 0.0 0.00 0.00 0.00 58 1009.4
20260506164935 72 129 7.0 0.0 0.00 0.00 0.00 57 1009.3
20260506164506 72 160 6.1 0.0 0.00 0.00 0.00 57 1009.4
20260506164435 72 160 6.1 0.0 0.00 0.00 0.00 57 1009.4
20260506163935 72 151 5.2 0.0 0.00 0.00 0.00 57 1009.5
20260506163435 72 145 7.0 0.0 0.00 0.00 0.00 56 1009.4
20260506162934 72 150 7.8 0.0 0.00 0.00 0.00 56 1009.5
20260506162434 73 136 7.8 0.0 0.00 0.00 0.00 56 1009.5
20260506161934 73 130 6.1 0.0 0.00 0.00 0.00 56 1009.5
20260506161434 73 138 8.7 0.0 0.00 0.00 0.00 56 1009.5
20260506160933 72 143 7.0 0.0 0.00 0.00 0.00 56 1009.6
20260506160433 73 147 4.3 0.0 0.00 0.00 0.00 56 1009.6
20260506155933 73 131 7.8 0.0 0.00 0.00 0.00 55 1009.5
20260506155433 73 133 7.0 0.0 0.00 0.00 0.00 56 1009.6
20260506154932 73 146 10.4 0.0 0.00 0.00 0.00 55 1009.6
20260506154432 73 116 7.0 0.0 0.00 0.00 0.00 55 1009.5
20260506153932 73 135 8.7 0.0 0.00 0.00 0.00 54 1009.5
20260506153432 74 139 10.4 0.0 0.00 0.00 0.00 53 1009.4
20260506152932 74 152 6.1 0.0 0.00 0.00 0.00 54 1009.4
20260506152431 74 162 6.1 0.0 0.00 0.00 0.00 56 1009.4
20260506151931 74 147 1.7 0.0 0.00 0.00 0.00 56 1009.3
20260506150931 73 148 4.3 0.0 0.00 0.00 0.00 57 1009.4
20260506150430 73 166 4.3 0.0 0.00 0.00 0.00 56 1009.4
20260506145930 73 145 2.6 0.0 0.00 0.00 0.00 56 1009.4
20260506145430 73 166 6.1 0.0 0.00 0.00 0.00 56 1009.3
20260506144930 73 142 5.2 0.0 0.00 0.00 0.00 57 1009.3
20260506144430 73 131 7.0 0.0 0.00 0.00 0.00 56 1009.3
20260506143929 73 142 7.8 0.0 0.00 0.00 0.00 56 1009.3
20260506143429 73 145 8.7 0.0 0.00 0.00 0.00 55 1009.2
20260506142929 73 150 10.4 0.0 0.00 0.36 0.00 54 1009.3
20260506142429 74 153 8.7 0.0 0.00 0.36 0.00 54 1009.3
20260506141928 74 153 3.5 0.0 0.00 0.36 0.00 55 1009.2
20260506141428 73 149 7.0 0.0 0.00 0.36 0.00 54 1009.2
20260506140928 73 151 7.0 0.0 0.00 0.36 0.00 55 1009.4
20260506140428 73 176 7.8 0.0 0.00 0.36 0.00 54 1009.6
20260506135928 73 165 10.4 0.0 0.00 0.36 0.00 53 1009.6
20260506135427 73 147 12.2 0.0 0.00 0.36 0.00 54 1009.6
20260506134927 73 146 11.3 0.0 0.00 0.36 0.00 54 1009.8
20260506134427 73 145 1.7 0.0 0.00 0.36 0.00 55 1009.8
20260506133926 73 178 3.5 0.0 0.00 0.36 0.00 55 1009.8
20260506133426 73 144 7.0 0.0 0.00 0.36 0.00 54 1009.9
20260506132926 73 155 7.8 0.0 0.00 0.36 0.00 54 1010.0
20260506132426 73 149 6.1 0.0 0.00 0.36 0.00 53 1010.1
20260506131926 73 142 5.2 0.0 0.00 0.36 0.00 53 1010.2
20260506131425 73 147 5.2 0.0 0.00 0.36 0.00 52 1010.2
20260506130925 73 148 1.7 0.0 0.00 0.36 0.00 52 1010.3
20260506130425 72 141 7.8 0.0 0.00 0.36 0.00 53 1010.3
20260506125925 72 145 4.3 0.0 0.00 0.36 0.00 53 1010.4
20260506125424 72 147 11.3 0.0 0.00 0.36 0.00 53 1010.4
20260506124924 72 138 16.5 0.0 0.00 0.36 0.00 54 1010.5
20260506124424 72 145 8.7 0.0 0.00 0.36 0.00 54 1010.6
20260506123924 72 168 9.6 0.0 0.00 0.36 0.00 53 1010.7
20260506122922 72 160 7.8 0.0 0.00 0.36 0.00 55 1010.5
20260506122422 72 138 8.7 0.0 0.00 0.36 0.00 56 1010.5
20260506121922 72 149 7.0 0.0 0.00 0.36 0.00 55 1010.5
20260506121422 72 149 7.0 0.0 0.00 0.36 0.00 55 1010.5
20260506120921 72 152 7.0 0.0 0.00 0.36 0.00 55 1010.6
20260506120421 72 168 10.4 0.0 0.00 0.36 0.00 55 1010.6
20260506120005 72 154 0.0 0.0 0.00 0.36 0.00 55 1010.6
20260506115921 72 154 0.0 0.0 0.00 0.36 0.00 55 1010.6
20260506115421 72 147 2.6 0.0 0.00 0.36 0.00 56 1010.5
20260506114920 72 137 4.3 0.0 0.00 0.36 0.00 58 1010.6
20260506114420 72 142 7.8 0.0 0.00 0.36 0.00 57 1010.6
20260506113920 72 143 3.5 0.0 0.00 0.36 0.00 58 1010.7
20260506113420 72 133 1.7 0.0 0.00 0.36 0.00 59 1010.7
20260506112920 71 149 0.0 0.0 0.00 0.36 0.00 60 1010.8
20260506112419 71 133 8.7 0.0 0.00 0.36 0.00 60 1010.9
20260506111919 71 137 6.1 0.0 0.00 0.36 0.00 62 1010.9
20260506111419 70 131 6.1 0.0 0.00 0.36 0.00 62 1011.0
20260506110919 70 135 7.0 0.0 0.00 0.36 0.00 62 1011.2
20260506110418 70 137 3.5 0.0 0.00 0.36 0.00 63 1011.1
20260506105918 70 166 7.0 0.0 0.00 0.36 0.00 63 1011.1
20260506105418 70 147 0.9 0.0 0.00 0.36 0.00 64 1011.2
20260506104918 70 154 3.5 0.0 0.00 0.36 0.00 63 1011.1
20260506104418 69 170 1.7 0.0 0.00 0.36 0.00 64 1011.2
20260506103916 69 135 10.4 0.0 0.00 0.36 0.00 63 1011.1
20260506103416 69 141 4.3 0.0 0.00 0.36 0.00 63 1011.1
20260506102916 69 161 7.0 0.0 0.00 0.36 0.00 63 1011.2
20260506102414 69 141 11.3 0.0 0.00 0.36 0.00 63 1011.2
20260506101914 69 147 7.8 0.0 0.00 0.36 0.00 64 1011.3
20260506101414 69 154 7.8 0.0 0.00 0.36 0.00 63 1011.2
20260506100913 69 147 7.8 0.0 0.00 0.36 0.00 63 1011.2
20260506100410 69 138 7.8 0.0 0.00 0.36 0.00 63 1011.2
20260506095910 69 139 12.2 0.0 0.00 0.36 0.00 63 1011.2
20260506095410 69 152 7.8 0.0 0.00 0.36 0.00 63 1011.2
20260506094909 69 140 12.2 0.0 0.00 0.36 0.00 62 1011.2
20260506094408 69 120 9.6 0.0 0.00 0.36 0.00 62 1011.3
20260506093908 69 125 6.1 0.0 0.00 0.36 0.00 62 1011.3
20260506093408 69 145 10.4 0.0 0.00 0.36 0.00 63 1011.3
20260506092908 68 132 5.2 0.0 0.00 0.36 0.00 63 1011.3
20260506092407 68 135 0.9 0.0 0.00 0.36 0.00 63 1011.4
20260506091907 68 128 10.4 0.0 0.00 0.36 0.00 64 1011.4
20260506091407 68 131 7.8 0.0 0.00 0.36 0.00 64 1011.3
20260506090907 68 135 9.6 0.0 0.00 0.36 0.00 64 1011.3
20260506090407 68 125 9.6 0.0 0.00 0.36 0.00 64 1011.4
20260506085906 68 133 5.2 0.0 0.00 0.36 0.00 64 1011.4
20260506085406 68 133 10.4 0.0 0.00 0.36 0.00 64 1011.3
20260506084906 67 123 6.1 0.0 0.00 0.36 0.00 64 1011.3
20260506084406 67 127 8.7 0.0 0.00 0.36 0.00 64 1011.3
20260506083905 67 146 8.7 0.0 0.00 0.36 0.00 65 1011.3